Pula, Croatia

3:49 AM CEST on July 26, 2017 (GMT +0200)
Pula

Weather History for LDPL - October, 2012

Change the Weather History Date:

Saturday, October 13, 2012

  Actual Average Record
Temperature  
Mean Temperature 60 °F -  
Max Temperature 64 °F - - ()
Min Temperature 55 °F - - ()
Degree Days  
Heating Degree Days 6    
Growing Degree Days 10 (Base 50)    
Moisture  
Dew Point 54 °F    
Average Humidity 79    
Maximum Humidity 100    
Minimum Humidity 27    
Precipitation  
Precipitation 0.24 in - - ()
Sea Level Pressure  
Sea Level Pressure 29.89 in    
Wind  
Wind Speed 7 mph ()    
Max Wind Speed 18 mph    
Max Gust Speed -    
Visibility 7.6 miles    
Events Rain , Thunderstorm    
T = Trace of Precipitation, MM = Missing Value Source: Averaged Metar Reports

Daily Weather History Graph

Daily Weather History Graph

Search for Another Location

Airport or City:

Trip Planner

Search our weather history database for the weather conditions in past years. The results will help you decide how hot, cold, wet, or windy it might be!

Date:

Astronomy

Oct. 13, 2012 Rise Set
Actual Time 7:17 AM CEST 6:22 PM CEST
Civil Twilight 6:48 AM CEST 6:52 PM CEST
Nautical Twilight 6:14 AM CEST 7:25 PM CEST
Astronomical Twilight 5:40 AM CEST 7:59 PM CEST
Moon 4:43 AM CEST (10/13) 4:59 PM CEST (10/13)
Length of Visible Light 12h 03m
Length of Day
11h 04m
Waning Crescent, 6% of the Moon is Illuminated
Oct 13
Waning Crescent
Oct 15
New
Oct 22
First Quarter
Oct 29
Full
Nov 7
Last Quarter

Hourly Weather History & Observations

Time (CEST) Temp. Dew Point Humidity Pressure Visibility Wind Dir Wind Speed Gust Speed Precip Events Conditions
12:00 AM 60.8 °F 59.0 °F 94% 29.89 in 6.2 mi NNE 4.6 mph - N/A   Mostly Cloudy
12:30 AM 59.0 °F 59.0 °F 100% 29.89 in 6.2 mi NNE 4.6 mph - N/A   Scattered Clouds
1:00 AM 59.0 °F 59.0 °F 100% 29.89 in 6.2 mi Variable 1.2 mph - N/A Rain Light Rain
1:30 AM 59.0 °F 57.2 °F 94% 29.89 in 6.2 mi Variable 2.3 mph - N/A   Mostly Cloudy
2:00 AM 59.0 °F 57.2 °F 94% 29.89 in 6.2 mi Variable 1.2 mph - N/A   Mostly Cloudy
2:30 AM 59.0 °F 57.2 °F 94% 29.89 in 6.2 mi Variable 2.3 mph - N/A   Mostly Cloudy
3:00 AM 59.0 °F 57.2 °F 94% 29.89 in 6.2 mi Calm Calm - N/A   Mostly Cloudy
3:30 AM 57.2 °F 57.2 °F 100% 29.89 in 6.2 mi NNE 4.6 mph - N/A   Mostly Cloudy
4:00 AM 57.2 °F 55.4 °F 94% 29.89 in 6.2 mi Variable 3.5 mph - N/A   Mostly Cloudy
5:00 AM 57 °F 32 °F 27% 29.91 in 12 mi NE 2.2 mph - -   Mostly Cloudy
5:00 AM 57.2 °F 55.4 °F 94% 29.89 in - Variable 2.3 mph - N/A   Mostly Cloudy
5:30 AM 57.2 °F 55.4 °F 94% 29.89 in 6.2 mi Variable 3.5 mph - N/A   Scattered Clouds
6:00 AM 57.2 °F 55.4 °F 94% 29.89 in 6.2 mi Variable 3.5 mph - N/A   Partly Cloudy
6:30 AM 57.2 °F 55.4 °F 94% 29.92 in 6.2 mi Calm Calm - N/A   Scattered Clouds
7:00 AM 56 °F 54 °F 93% 29.93 in 19 mi North 2.2 mph - -   Scattered Clouds
7:00 AM 57.2 °F 55.4 °F 94% 29.92 in 6.2 mi Variable 1.2 mph - N/A   Partly Cloudy
7:30 AM 59.0 °F 55.4 °F 88% 29.92 in 6.2 mi East 4.6 mph - N/A   Partly Cloudy
8:00 AM 59 °F 56 °F 87% 29.93 in 19 mi ENE 6.7 mph - -   Scattered Clouds
8:00 AM 59.0 °F 55.4 °F 88% 29.92 in 6.2 mi ENE 5.8 mph - N/A   Partly Cloudy
8:30 AM 59.0 °F 57.2 °F 94% 29.92 in 6.2 mi East 8.1 mph - N/A   Partly Cloudy
9:00 AM 60.8 °F 55.4 °F 82% 29.92 in 6.2 mi East 10.4 mph - N/A   Partly Cloudy
9:30 AM 62.6 °F 55.4 °F 77% 29.92 in 6.2 mi East 10.4 mph - N/A   Partly Cloudy
10:00 AM 62.6 °F 55.4 °F 77% 29.95 in 6.2 mi ENE 15.0 mph - N/A   Partly Cloudy
10:30 AM 64.4 °F 55.4 °F 73% 29.95 in 6.2 mi ENE 15.0 mph - N/A   Partly Cloudy
11:00 AM 64 °F 54 °F 63% 29.95 in 19 mi ENE 17.9 mph - -   Partly Cloudy
11:00 AM 64.4 °F 53.6 °F 68% 29.95 in 6.2 mi ENE 18.4 mph - N/A   Scattered Clouds
12:00 PM 64.4 °F 53.6 °F 68% 29.95 in 6.2 mi ENE 17.3 mph - N/A   Scattered Clouds
12:30 PM 64.4 °F 53.6 °F 68% 29.95 in 6.2 mi ENE 15.0 mph - N/A   Scattered Clouds
1:00 PM 64.4 °F 53.6 °F 68% 29.92 in 6.2 mi ENE 18.4 mph - N/A   Scattered Clouds
1:30 PM 64.4 °F 51.8 °F 64% 29.92 in 6.2 mi ENE 18.4 mph - N/A   Scattered Clouds
2:00 PM 63 °F 52 °F 59% 29.91 in 19 mi ENE 17.9 mph - -   Mostly Cloudy
2:00 PM 62.6 °F 51.8 °F 68% 29.92 in 6.2 mi ENE 17.3 mph - N/A   Mostly Cloudy
2:30 PM 60.8 °F 55.4 °F 82% 29.89 in 6.2 mi ENE 15.0 mph - N/A Rain Light Rain
3:00 PM 62.6 °F 55.4 °F 77% 29.89 in 6.2 mi ENE 15.0 mph - N/A   Scattered Clouds
3:30 PM 64.4 °F 53.6 °F 68% 29.89 in 6.2 mi ENE 15.0 mph - N/A   Partly Cloudy
4:00 PM 62.6 °F 53.6 °F 72% 29.86 in 6.2 mi ENE 16.1 mph - N/A   Partly Cloudy
4:30 PM 62.6 °F 51.8 °F 68% 29.86 in - ENE 13.8 mph - N/A   Clear
5:00 PM 63 °F 51 °F 57% 29.87 in 19 mi ENE 11.2 mph - -   Partly Cloudy
5:00 PM 62.6 °F 51.8 °F 68% 29.86 in - ENE 11.5 mph - N/A   Clear
5:30 PM 62.6 °F 51.8 °F 68% 29.86 in - ENE 12.7 mph - N/A   Clear
6:00 PM 60.8 °F 51.8 °F 72% 29.83 in 6.2 mi ENE 13.8 mph - N/A   Partly Cloudy
6:30 PM 60.8 °F 51.8 °F 72% 29.83 in 6.2 mi ENE 13.8 mph - N/A   Partly Cloudy
7:00 PM 60.8 °F 51.8 °F 72% 29.83 in 6.2 mi East 12.7 mph - N/A   Partly Cloudy
7:30 PM 60.8 °F 51.8 °F 72% 29.83 in 6.2 mi ENE 11.5 mph - N/A   Partly Cloudy
8:00 PM 60.8 °F 53.6 °F 77% 29.83 in 6.2 mi ENE 9.2 mph - N/A Rain Light Rain
8:30 PM 60.8 °F 53.6 °F 77% 29.83 in 6.2 mi ENE 10.4 mph - N/A   Scattered Clouds
9:00 PM 60.8 °F 53.6 °F 77% 29.83 in 6.2 mi ENE 6.9 mph - N/A   Scattered Clouds
9:30 PM 60.8 °F 53.6 °F 77% 29.83 in 6.2 mi ENE 5.8 mph - N/A   Scattered Clouds
10:00 PM 60.8 °F 53.6 °F 77% 29.83 in 6.2 mi ENE 9.2 mph - N/A Thunderstorm Thunderstorm
10:30 PM 60.8 °F 53.6 °F 77% 29.83 in 6.2 mi NE 4.6 mph - N/A Rain , Thunderstorm Light Thunderstorms and Rain
11:00 PM 59 °F 53 °F 76% 29.86 in 6 mi ESE 2.2 mph - - Rain , Thunderstorm Thunderstorms and Rain
11:00 PM 59.0 °F 53.6 °F 82% 29.86 in 6.2 mi Variable 3.5 mph - N/A Rain , Thunderstorm Thunderstorms and Rain
11:30 PM 57.2 °F 55.4 °F 94% 29.83 in 6.2 mi Variable 3.5 mph - N/A Rain , Thunderstorm Thunderstorms and Rain